Regional Weather Roundup
Issued by NWS Northern Indiana

Home | Current Version | Previous Version | Graphics & Text | Print | Product List | Glossary Off
Versions: 1 2 3 4 5 6 7 8 9 10 11 12 13 14 15 16 17 18 19 20 21 22 23 24 25 26 27 28 29 30 31 32 33 34 35 36 37 38 39 40 41 42 43 44 45 46 47 48 49 50

000
ASUS43 KIWX 180710
RWRIWX

KIWX WEATHER ROUNDUP
NATIONAL WEATHER SERVICE NORTHERN INDIANA
200 AM EST SUN FEB 18 2018

NOTE: "FAIR" INDICATES FEW OR NO CLOUDS BELOW 12,000 FEET WITH NO
SIGNIFICANT WEATHER AND/OR OBSTRUCTIONS TO VISIBILITY.

* THESE STATIONS ARE NOT UNDER NWS QUALITY CONTROL. THEY ALSO MAY NOT
  REPORT WEATHER SUCH AS PRECIPITATION OR FOG.

INZ001>027-180800-
NORTHERN INDIANA

CITY           SKY/WX    TMP DP  RH WIND       PRES   REMARKS
GARY*          MOCLDY    29  25  87 SW3       30.22R
VALPARAISO     CLOUDY    30  25  81 SW9       30.20R WCI  22
MICHIGAN CITY* CLOUDY    30  27  86 W6        30.20R WCI  24
LAPORTE*       CLOUDY    29  24  83 W5        30.20R WCI  24
KNOX*          CLOUDY    30  27  86 W8        30.19R WCI  23
SOUTH BEND     CLOUDY    28  24  85 W9        30.17R WCI  19
GOSHEN         CLOUDY    30  25  81 W13       30.16R WCI  20
MONTICELLO*    CLOUDY    28  25  86 W9        30.22R WCI  20
LOGANSPORT*    CLOUDY    30  27  86 W10       30.22R WCI  21
ROCHESTER*     CLOUDY    32  28  86 W8        30.20R WCI  25
WARSAW*        CLOUDY    30  27  86 W10       30.17R WCI  21
AUBURN*        CLOUDY    32  30  93 W9        30.14R WCI  24
FORT WAYNE     CLOUDY    32  28  85 W13       30.16R WCI  22
HUNTINGTON*    CLOUDY    29  26  88 W7        30.18R WCI  22
PERU/GRISSOM   CLOUDY    30  30 100 W9        30.20R WCI  22
MARION*        CLOUDY    30  26  86 W12       30.21R WCI  20

$$
INZ028>050-180800-
CENTRAL INDIANA

CITY           SKY/WX    TMP DP  RH WIND       PRES   REMARKS
LAFAYETTE      CLOUDY    29  26  89 W9        30.24R WCI  20
KOKOMO*        CLOUDY    29  26  89 W15       30.21R WCI  18
MUNCIE*        CLOUDY    32  26  78 W13       30.20R WCI  22
INDIANAPOLIS   MOCLDY    30  26  85 NW14      30.22R WCI  19

$$
MIZ043>046-050>051-056>058-064>065-071>073-077>080-180800-
SOUTHWEST LOWER MICHIGAN

CITY           SKY/WX    TMP DP  RH WIND       PRES   REMARKS
BATTLE CREEK   CLOUDY    31  25  78 W13       30.11R WCI  21
BENTON HARBOR  CLOUDY    31  24  75 NW8G18    30.16R WCI  23
COLDWATER*     CLOUDY    31  28  88 W12       30.11R WCI  22
HILLSDALE*     CLOUDY    32  28  86 W14G21    30.08R WCI  22
HOLLAND        CLOUDY    31  24  75 NW9       30.11R WCI  23
GRAND RAPIDS   CLOUDY    31  25  78 W16       30.10R WCI  20
KALAMAZOO      CLOUDY    31  25  78 NW13      30.12R WCI  21
STURGIS*       CLOUDY    32  27  81 NW12      30.12R WCI  23
THREE RIVERS*  CLOUDY    31  26  81 NW12      30.13R WCI  22

$$
OHZ001>008-015>018-024>025-180800-
NORTHWEST OHIO

CITY           SKY/WX    TMP DP  RH WIND       PRES   REMARKS
WAUSEON*       CLOUDY    32  32 100 W9        30.11R WCI  24
DEFIANCE       CLOUDY    32  28  85 VRB3      30.13R
FINDLAY        CLOUDY    34  28  79 W12       30.11R WCI  25
TOLEDO EXPRESS CLOUDY    32  32 100 W9        30.11R WCI  24
TOLEDO METCALF CLOUDY    33  30  88 W10       30.12R FOG     WCI  25
LIMA           CLOUDY    33  28  81 W15       30.14R WCI  23

$$
AND FOR LAKE MICHIGAN COASTAL AND OPEN LAKE BUOY OBSERVATIONS

STATION/POSITION TEMP    WIND        PRES    VSBY  WAVE
                 AIR SEA DIR/SP/G                  HT/PER
                 (F)     (DEG/KT/KT) (MB)    (MI)  (FT/S)
CALUMET HARBOR    27     210/  5/  8 1021.9R
MICHIGAN CITY     29     250/ 10/ 12   N/A
BURNS HARBOR      30     260/ 11/ 14 1023.0R
SAINT JOSEPH      31     280/  9/ 12 1022.4

$$
&&




USA.gov is the U.S. government's official web portal to all federal, state and local government web resources and services.